Content
SEND FEEDBACK

Daily
Averages
Monthly
Summary
United States of America

ST. LOUIS - SAINT LOUIS UNIVERSITY, MISSOURI


Home > North America > United States > Missouri
Elevation: 580 feet     Latitude: 38 38N     Longitude: 090 14W

WEATHER
 
SELECT A DAY
Number of Records: 186,071;   Date Range: 1/1/95 - 7/27/14
 
SHARE

PRINT THIS DATA

[ ← Previous Day ]
WEATHER ALMANAC - APRIL 9, 2013
[ Next Day → ]
[ °C ]   °F
We're sorry. There is no daily almanac available for St. Louis - Saint Louis University, Missouri on April 9, 2013.
WEATHER BY HOUR - APRIL 9, 2013
[ °C ]   °F
Local TimeTemperatureDewpointHumidityBarometerVisibilityWind DirectionWind SpeedGust SpeedPrecipitationEventsConditions
1:53 AM66.0 °F57.0 °F73 %29.86 in10.0 miSE (140°)6.9 mphMostly Cloudy
2:53 AM64.9 °F57.0 °F75 %29.84 in10.0 miSSE (150°)8.1 mphScattered Clouds
3:53 AM64.0 °F55.9 °F75 %29.83 in10.0 miSSE (160°)10.4 mphClear
4:53 AM64.0 °F55.9 °F75 %29.83 in10.0 miSSE (160°)8.1 mphClear
5:53 AM64.0 °F55.0 °F73 %29.84 in10.0 miSSE (150°)9.2 mph17.3 mphOvercast
6:53 AM64.9 °F55.0 °F70 %29.86 in10.0 miSSE (160°)8.1 mphOvercast
7:53 AM66.0 °F55.9 °F70 %29.87 in10.0 miSouth (170°)11.5 mph17.3 mphOvercast
8:53 AM68.0 °F57.9 °F70 %29.87 in10.0 miSouth (180°)12.7 mph21.9 mphOvercast
9:53 AM70.0 °F57.9 °F65 %29.88 in10.0 miSouth (180°)13.8 mph27.6 mphMostly Cloudy
10:53 AM72.0 °F57.9 °F61 %29.89 in10.0 miSouth (190°)15.0 mph26.5 mphMostly Cloudy
11:53 AM71.1 °F59.0 °F66 %29.88 in10.0 miSSW (200°)16.1 mph29.9 mphOvercast
12:53 PM73.0 °F59.0 °F61 %29.87 in10.0 miSSW (200°)20.7 mph26.5 mphOvercast
1:53 PM73.9 °F59.0 °F59 %29.87 in10.0 miSSW (200°)9.2 mph21.9 mphOvercast
2:53 PM75.0 °F60.1 °F60 %29.85 in10.0 miSSW (200°)17.3 mph24.2 mphMostly Cloudy
3:53 PM78.1 °F61.0 °F56 %29.83 in10.0 miSouth (190°)16.1 mph21.9 mphMostly Cloudy
4:53 PM77.0 °F60.1 °F56 %29.82 in10.0 miSouth (190°)6.9 mph17.3 mphOvercast
5:53 PM75.9 °F61.0 °F60 %29.82 in10.0 miSSE (160°)8.1 mphOvercast
6:53 PM73.9 °F61.0 °F64 %29.81 in10.0 miSE (140°)5.8 mphScattered Clouds
7:53 PM71.1 °F61.0 °F70 %29.81 in10.0 miSSE (150°)6.9 mphClear
8:53 PM71.1 °F60.1 °F68 %29.83 in10.0 miSSE (160°)5.8 mphClear
9:53 PM72.0 °F59.0 °F64 %29.84 in10.0 miSSE (160°)8.1 mphClear
10:53 PM70.0 °F60.1 °F71 %29.82 in10.0 miSSE (150°)4.6 mphClear
11:53 PM66.9 °F59.0 °F76 %29.82 in10.0 miSE (140°)5.8 mphClear
Hourly data recorded from KCPS, located miles away from St. Louis - Saint Louis University, Missouri







STORIES FROM OUR PARTNERS